ONEWEB-0594

operational
NORAD ID: 54660 Int'l Des: 2022-166 Owner: ONEWEBN Country: UK Constellation: oneweb
LEOCIRCULARPOLARONEWEB_TYPE

About ONEWEB-0594

Description loading...

Live Position

Loading 3D Globe...

Upcoming Passes

Altitude History

Altitude vs Time

uPlot chart will show altitude changes over time

Two-Line Element Set

1 54660U 22166U 25251.83938373 -.00000002 00000-0 -35345-4 0 9995
2 54660 87.9218 300.1439 0001904 93.8003 266.3348 13.21823524134398
Epoch: Sep 8, 2025 • Age: 14 hours

Current Status

Altitude 1206.6 km
Velocity 7.25 km/s
Sub-Earth Point -75.13°S, 149.01°E
Launch Date Dec 8, 2022
Age 2.7 years
Type internet

Technical Details

Classification Payload
Mass 148.00 kg
Dry Mass 140.00 kg
Total Mass 148.00 kg
Length 1.30 m
Diameter 1.00 m
Span 5.00 m
Shape Trapezoid+2 pan
Manufacturer ONEWUS
Bus Type ARROW
Phase Status In Orbit
Owner/State ONEWEBN/UK

Large Constellations

Loading constellations...